FW3936 Weather Reports


Display with metric or nautical units.
time (UTC)temp
F
wind
direction
speed
MPH
gust
MPH
rain 1hr
in
rain 24hr
in
rain mn
in
humidity
%
barometer
mb
20200121033514 44 105 0.0 0.0 0.00 0.00 0.00 59 1031.7
20200121033026 45 105 0.0 0.0 0.00 0.00 0.00 60 1031.6
20200121032508 45 105 0.0 0.0 0.00 0.00 0.00 59 1031.6
20200121032009 45 105 0.0 0.0 0.00 0.00 0.00 60 1031.6
20200121031531 45 105 0.0 1.0 0.00 0.00 0.00 59 1031.5
20200121031014 46 105 0.0 1.0 0.00 0.00 0.00 59 1031.6
20200121030508 46 105 0.0 0.0 0.00 0.00 0.00 60 1031.8
20200121030007 46 105 0.0 0.0 0.00 0.00 0.00 60 1031.7
20200121025510 45 105 0.0 0.0 0.00 0.00 0.00 61 1031.5
20200121025005 45 105 0.0 0.0 0.00 0.00 0.00 61 1031.5
20200121024507 45 105 0.0 0.0 0.00 0.00 0.00 61 1031.5
20200121024002 45 105 0.0 0.0 0.00 0.00 0.00 61 1031.5
20200121023506 45 105 0.0 0.0 0.00 0.00 0.00 60 1031.5
20200121023004 45 105 0.0 0.0 0.00 0.00 0.00 62 1031.5
20200121022503 44 105 0.0 0.0 0.00 0.00 0.00 62 1031.5
20200121022002 44 105 0.0 0.0 0.00 0.00 0.00 61 1031.5
20200121021500 44 105 0.0 0.0 0.00 0.00 0.00 61 1031.5
20200121021002 44 105 0.0 0.0 0.00 0.00 0.00 60 1031.5
20200121020600 44 105 0.0 0.0 0.00 0.00 0.00 60 1031.4
20200121020250 44 105 0.0 0.0 0.00 0.00 0.00 61 1031.4
20200121015636 44 105 0.0 0.0 0.00 0.00 0.00 59 1031.4
20200121015059 44 105 0.0 0.0 0.00 0.00 0.00 57 1031.5
20200121014714 44 105 0.0 0.0 0.00 0.00 0.00 59 1031.6
20200121014059 44 105 0.0 0.0 0.00 0.00 0.00 59 1031.5
20200121013600 44 105 0.0 0.0 0.00 0.00 0.00 59 1031.4
20200121013305 45 105 0.0 0.0 0.00 0.00 0.00 59 1031.5
20200121012559 45 105 0.0 0.0 0.00 0.00 0.00 58 1031.5
20200121012059 45 105 0.0 0.0 0.00 0.00 0.00 59 1031.6
20200121011749 45 105 0.0 0.0 0.00 0.00 0.00 59 1031.6
20200121011058 45 105 0.0 0.0 0.00 0.00 0.00 59 1031.5
20200121010606 45 105 0.0 0.0 0.00 0.00 0.00 58 1031.5
20200121010227 45 105 0.0 0.0 0.00 0.00 0.00 57 1031.5
20200121005604 46 105 0.0 0.0 0.00 0.00 0.00 57 1031.5
20200121005057 46 105 0.0 0.0 0.00 0.00 0.00 56 1031.6
20200121004620 46 105 0.0 0.0 0.00 0.00 0.00 53 1031.6
20200121004110 47 105 0.0 0.0 0.00 0.00 0.00 51 1031.5
20200121003608 47 105 0.0 0.0 0.00 0.00 0.00 49 1031.5
20200121003440 47 105 0.0 0.0 0.00 0.00 0.00 48 1031.4
20200121002608 48 105 0.0 0.0 0.00 0.00 0.00 49 1031.4
20200121002106 48 105 0.0 0.0 0.00 0.00 0.00 49 1031.3
20200121001638 49 105 0.0 0.0 0.00 0.00 0.00 48 1031.2
20200121001055 49 105 0.0 0.0 0.00 0.00 0.00 48 1031.3
20200121000601 50 105 0.0 0.0 0.00 0.00 0.00 48 1031.2
20200121000257 50 105 0.0 0.0 0.00 0.00 0.00 47 1031.3
20200120235556 51 105 0.0 0.0 0.00 0.00 0.00 46 1031.4
20200120235054 51 105 0.0 0.0 0.00 0.00 0.00 45 1031.3
20200120234705 51 105 0.0 0.0 0.00 0.00 0.00 44 1031.4
20200120234053 52 105 0.0 0.0 0.00 0.00 0.00 43 1031.4
20200120233613 52 105 0.0 0.0 0.00 0.00 0.00 43 1031.3
20200120233142 53 105 0.0 1.0 0.00 0.00 0.00 41 1031.2
20200120232601 53 105 0.0 2.0 0.00 0.00 0.00 39 1031.3
20200120232052 54 107 0.0 2.0 0.00 0.00 0.00 39 1031.3
20200120231859 54 102 0.0 3.0 0.00 0.00 0.00 37 1031.2
20200120231052 55 134 0.0 1.0 0.00 0.00 0.00 37 1031.2
20200120230602 55 134 0.0 2.0 0.00 0.00 0.00 36 1031.2
20200120230149 56 135 0.0 2.0 0.00 0.00 0.00 33 1031.2
20200120225608 57 130 0.0 2.0 0.00 0.00 0.00 33 1031.3
20200120225130 57 128 0.0 2.0 0.00 0.00 0.00 32 1031.4
20200120224704 58 128 0.0 1.0 0.00 0.00 0.00 31 1031.5
20200120224127 58 130 0.0 1.0 0.00 0.00 0.00 33 1031.5
20200120223554 58 85 0.0 2.0 0.00 0.00 0.00 32 1031.6
20200120223205 58 85 0.0 2.0 0.00 0.00 0.00 30 1031.6
20200120222612 58 142 0.0 2.0 0.00 0.00 0.00 32 1031.7
20200120222048 58 165 0.0 3.0 0.00 0.00 0.00 30 1031.6
20200120221627 58 165 0.0 3.0 0.00 0.00 0.00 30 1031.7
20200120221059 58 99 0.0 2.0 0.00 0.00 0.00 29 1031.7
20200120220547 58 97 0.0 2.0 0.00 0.00 0.00 29 1031.7
20200120220137 58 87 0.0 1.0 0.00 0.00 0.00 29 1031.8
20200120215552 58 89 0.0 5.0 0.00 0.00 0.00 27 1031.7
20200120215052 57 89 0.0 5.0 0.00 0.00 0.00 28 1031.8
20200120214713 57 107 1.0 3.0 0.00 0.00 0.00 31 1031.7
20200120214054 57 148 0.0 2.0 0.00 0.00 0.00 30 1031.6
20200120213545 57 112 0.0 3.0 0.00 0.00 0.00 27 1031.6
20200120213101 57 113 0.0 5.0 0.00 0.00 0.00 28 1031.7
20200120212549 57 138 1.0 5.0 0.00 0.00 0.00 28 1031.7
20200120212042 57 152 0.0 3.0 0.00 0.00 0.00 30 1031.7
20200120211702 57 92 0.0 2.0 0.00 0.00 0.00 29 1031.9
20200120211041 57 117 0.0 1.0 0.00 0.00 0.00 32 1031.9
20200120210545 57 117 0.0 2.0 0.00 0.00 0.00 26 1031.9
20200120210143 58 117 0.0 3.0 0.00 0.00 0.00 26 1031.9
20200120205547 58 117 0.0 6.0 0.00 0.00 0.00 26 1032.0
20200120205038 59 135 0.0 6.0 0.00 0.00 0.00 27 1032.1
20200120204614 59 166 0.0 4.0 0.00 0.00 0.00 27 1032.1
20200120204037 59 157 1.0 4.0 0.00 0.00 0.00 27 1032.2
20200120203536 59 158 0.0 3.0 0.00 0.00 0.00 27 1032.3
20200120203137 59 159 0.0 5.0 0.00 0.00 0.00 27 1032.4
20200120202535 59 140 0.0 5.0 0.00 0.00 0.00 28 1032.5
20200120202035 59 155 0.0 5.0 0.00 0.00 0.00 28 1032.5
20200120201605 59 119 0.0 5.0 0.00 0.00 0.00 27 1032.5
20200120201106 59 96 0.0 6.0 0.00 0.00 0.00 29 1032.6
20200120200533 58 14 0.0 6.0 0.00 0.00 0.00 29 1032.6
20200120200146 58 99 0.0 6.0 0.00 0.00 0.00 28 1032.7
20200120195536 58 143 0.0 4.0 0.00 0.00 0.00 28 1032.8
20200120195028 58 73 0.0 2.0 0.00 0.00 0.00 28 1032.9
20200120194540 58 107 0.0 2.0 0.00 0.00 0.00 29 1033.1
20200120194029 58 107 0.0 5.0 0.00 0.00 0.00 30 1033.2
20200120193539 58 88 1.0 5.0 0.00 0.00 0.00 33 1033.2
20200120193111 58 145 0.0 3.0 0.00 0.00 0.00 30 1033.3
20200120192525 58 155 0.0 3.0 0.00 0.00 0.00 29 1033.4
20200120192028 58 141 0.0 3.0 0.00 0.00 0.00 32 1033.6
20200120191536 57 133 0.0 6.0 0.00 0.00 0.00 32 1033.7
20200120191023 57 155 1.0 6.0 0.00 0.00 0.00 30 1033.8
20200120190521 57 108 3.0 7.0 0.00 0.00 0.00 32 1033.8
20200120190055 57 162 0.0 3.0 0.00 0.00 0.00 31 1033.8
20200120185520 57 172 0.0 4.0 0.00 0.00 0.00 31 1034.0
20200120185031 56 117 0.0 4.0 0.00 0.00 0.00 33 1034.1
20200120184523 56 107 0.0 5.0 0.00 0.00 0.00 32 1034.3
20200120184017 56 158 1.0 4.0 0.00 0.00 0.00 34 1034.4
20200120183521 56 156 0.0 5.0 0.00 0.00 0.00 34 1034.5
20200120183032 56 155 1.0 5.0 0.00 0.00 0.00 35 1034.6
20200120182517 56 124 0.0 7.0 0.00 0.00 0.00 33 1034.8
20200120182034 56 108 1.0 7.0 0.00 0.00 0.00 33 1035.1
20200120181558 56 147 0.0 5.0 0.00 0.00 0.00 33 1035.1
20200120181015 56 107 1.0 5.0 0.00 0.00 0.00 34 1035.3
20200120180510 55 164 0.0 3.0 0.00 0.00 0.00 35 1035.5
20200120180011 55 167 1.0 4.0 0.00 0.00 0.00 36 1035.5
20200120175508 54 119 0.0 5.0 0.00 0.00 0.00 35 1035.6
20200120175020 54 172 0.0 5.0 0.00 0.00 0.00 36 1035.6
20200120174534 54 133 1.0 6.0 0.00 0.00 0.00 34 1035.7
20200120174010 54 159 1.0 6.0 0.00 0.00 0.00 34 1035.7
20200120173514 54 130 0.0 5.0 0.00 0.00 0.00 37 1035.7
20200120173033 53 107 0.0 7.0 0.00 0.00 0.00 37 1035.7
20200120172510 52 113 0.0 7.0 0.00 0.00 0.00 38 1035.8
20200120172003 52 93 0.0 7.0 0.00 0.00 0.00 38 1035.8
20200120171652 52 111 0.0 8.0 0.00 0.00 0.00 39 1035.9
20200120171058 51 106 1.0 8.0 0.00 0.00 0.00 43 1036.0
20200120170610 51 160 1.0 5.0 0.00 0.00 0.00 43 1036.1
20200120170214 51 103 1.0 5.0 0.00 0.00 0.00 44 1036.1
20200120165609 51 164 1.0 5.0 0.00 0.00 0.00 45 1036.2
20200120165053 50 107 1.0 5.0 0.00 0.00 0.00 45 1036.2
20200120164753 49 111 0.0 3.0 0.00 0.00 0.00 49 1036.2
20200120164051 49 115 0.0 3.0 0.00 0.00 0.00 49 1036.3
20200120163617 49 106 0.0 5.0 0.00 0.00 0.00 49 1036.3
20200120163232 49 89 0.0 5.0 0.00 0.00 0.00 50 1036.2
20200120162548 49 109 0.0 2.0 0.00 0.00 0.00 50 1036.3
20200120162046 48 130 0.0 1.0 0.00 0.00 0.00 52 1036.4
20200120161754 48 114 0.0 1.0 0.00 0.00 0.00 50 1036.4
20200120161045 48 111 0.0 2.0 0.00 0.00 0.00 52 1036.5
20200120160545 47 108 0.0 1.0 0.00 0.00 0.00 53 1036.5
20200120160152 47 105 0.0 5.0 0.00 0.00 0.00 52 1036.5
20200120155611 46 105 1.0 5.0 0.00 0.00 0.00 52 1036.5
20200120155054 46 111 1.0 5.0 0.00 0.00 0.00 51 1036.4
20200120154723 46 88 0.0 3.0 0.00 0.00 0.00 52 1036.3
20200120154042 46 106 0.0 2.0 0.00 0.00 0.00 53 1036.3
20200120153542 45 107 0.0 2.0 0.00 0.00 0.00 53 1036.2
20200120153123 45 106 0.0 0.0 0.00 0.00 0.00 54 1036.2
20200120152535 45 105 0.0 1.0 0.00 0.00 0.00 54 1036.2
20200120152033 45 105 0.0 1.0 0.00 0.00 0.00 56 1036.2
20200120151822 44 103 0.0 1.0 0.00 0.00 0.00 56 1036.1
20200120151032 44 95 0.0 1.0 0.00 0.00 0.00 56 1036.1
20200120150537 43 102 0.0 1.0 0.00 0.00 0.00 58 1036.1
20200120150131 43 309 0.0 1.0 0.00 0.00 0.00 58 1036.0
20200120145527 43 304 0.0 0.0 0.00 0.00 0.00 59 1036.0
20200120145032 42 308 0.0 1.0 0.00 0.00 0.00 60 1035.9
20200120144544 42 305 0.0 1.0 0.00 0.00 0.00 60 1035.8
20200120144036 41 284 0.0 0.0 0.00 0.00 0.00 62 1035.8
20200120143523 41 283 0.0 0.0 0.00 0.00 0.00 63 1035.8
20200120143103 41 283 0.0 0.0 0.00 0.00 0.00 64 1035.8
20200120142527 40 284 0.0 0.0 0.00 0.00 0.00 65 1035.9
20200120142038 39 290 0.0 1.0 0.00 0.00 0.00 66 1035.7
20200120141615 39 290 0.0 1.0 0.00 0.00 0.00 69 1035.7
20200120141027 38 288 0.0 0.0 0.00 0.00 0.00 70 1035.9
20200120140519 37 288 0.0 0.0 0.00 0.00 0.00 71 1035.8
20200120140042 37 288 0.0 0.0 0.00 0.00 0.00 71 1035.8
20200120135526 37 289 0.0 0.0 0.00 0.00 0.00 71 1035.6
20200120135017 36 288 0.0 0.0 0.00 0.00 0.00 71 1035.6
20200120134541 37 287 0.0 0.0 0.00 0.00 0.00 71 1035.7
20200120134020 37 287 0.0 0.0 0.00 0.00 0.00 70 1035.6
20200120133534 37 287 0.0 0.0 0.00 0.00 0.00 69 1035.6
20200120133052 37 288 0.0 0.0 0.00 0.00 0.00 69 1035.6
20200120132529 37 288 0.0 0.0 0.00 0.00 0.00 68 1035.6
20200120132019 37 288 0.0 0.0 0.00 0.00 0.00 68 1035.6
20200120131517 38 287 0.0 0.0 0.00 0.00 0.00 67 1035.5
20200120131020 38 287 0.0 0.0 0.00 0.00 0.00 67 1035.5
20200120130519 38 287 0.0 0.0 0.00 0.00 0.00 65 1035.5
20200120130015 39 287 0.0 0.0 0.00 0.00 0.00 65 1035.5
20200120125512 39 287 0.0 0.0 0.00 0.00 0.00 64 1035.5
20200120125029 40 288 0.0 0.0 0.00 0.00 0.00 63 1035.5
20200120124547 40 305 0.0 0.0 0.00 0.00 0.00 62 1035.5
20200120124020 40 305 0.0 0.0 0.00 0.00 0.00 62 1035.3
20200120123510 40 305 0.0 1.0 0.00 0.00 0.00 61 1035.3
20200120123038 41 310 0.0 1.0 0.00 0.00 0.00 60 1035.1
20200120122508 41 309 0.0 0.0 0.00 0.00 0.00 59 1035.1
20200120122008 41 314 0.0 3.0 0.00 0.00 0.00 59 1034.9
20200120121533 41 313 0.0 3.0 0.00 0.00 0.00 59 1034.9
20200120121011 41 82 0.0 3.0 0.00 0.00 0.00 59 1034.8
20200120120506 41 325 0.0 1.0 0.00 0.00 0.00 59 1034.8
20200120120010 41 150 0.0 2.0 0.00 0.00 0.00 59 1034.7
20200120115528 41 140 0.0 2.0 0.00 0.00 0.00 59 1034.7
20200120115006 41 156 0.0 1.0 0.00 0.00 0.00 59 1034.7
20200120114512 41 302 0.0 1.0 0.00 0.00 0.00 59 1034.8
20200120114014 41 67 0.0 1.0 0.00 0.00 0.00 59 1034.7
20200120113503 41 71 0.0 2.0 0.00 0.00 0.00 59 1034.7
20200120113004 41 84 0.0 2.0 0.00 0.00 0.00 59 1034.7
20200120112508 40 164 0.0 2.0 0.00 0.00 0.00 59 1034.6
20200120112005 40 272 0.0 2.0 0.00 0.00 0.00 59 1034.5
20200120111502 40 306 0.0 2.0 0.00 0.00 0.00 60 1034.5
20200120111001 40 329 0.0 2.0 0.00 0.00 0.00 61 1034.5
20200120110503 39 264 0.0 3.0 0.00 0.00 0.00 63 1034.6
20200120110251 38 294 0.0 3.0 0.00 0.00 0.00 65 1034.6
20200120110002 38 325 0.0 3.0 0.00 0.00 0.00 65 1034.5
20200120105622 38 287 0.0 3.0 0.00 0.00 0.00 67 1034.5
20200120104715 37 323 0.0 3.0 0.00 0.00 0.00 67 1034.4
20200120104059 37 348 0.0 1.0 0.00 0.00 0.00 67 1034.3
20200120103604 37 348 0.0 1.0 0.00 0.00 0.00 67 1034.4
20200120103206 37 355 0.0 1.0 0.00 0.00 0.00 68 1034.4
20200120102558 37 349 0.0 1.0 0.00 0.00 0.00 68 1034.3
20200120102057 36 355 0.0 1.0 0.00 0.00 0.00 68 1034.4
20200120101846 37 314 0.0 1.0 0.00 0.00 0.00 67 1034.3
20200120101057 37 315 0.0 1.0 0.00 0.00 0.00 67 1034.3
20200120100556 37 329 0.0 1.0 0.00 0.00 0.00 66 1034.2
20200120100155 37 326 0.0 1.0 0.00 0.00 0.00 66 1034.3
20200120095554 37 326 0.0 1.0 0.00 0.00 0.00 65 1034.3
20200120095053 37 306 0.0 1.0 0.00 0.00 0.00 65 1034.2
20200120094701 37 304 0.0 1.0 0.00 0.00 0.00 64 1034.3
20200120094051 38 270 0.0 1.0 0.00 0.00 0.00 64 1034.2
20200120093550 38 333 0.0 1.0 0.00 0.00 0.00 63 1034.2
20200120093302 38 333 0.0 1.0 0.00 0.00 0.00 63 1034.2
20200120092548 38 292 0.0 1.0 0.00 0.00 0.00 62 1034.3
20200120092047 38 290 0.0 1.0 0.00 0.00 0.00 62 1034.1
20200120091814 39 270 0.0 1.0 0.00 0.00 0.00 62 1034.1
20200120091136 39 313 0.0 1.0 0.00 0.00 0.00 62 1034.1
20200120090603 39 308 0.0 1.0 0.00 0.00 0.00 62 1034.0
20200120090123 39 346 0.0 1.0 0.00 0.00 0.00 62 1034.0
20200120085545 39 288 0.0 1.0 0.00 0.00 0.00 62 1034.1
20200120085046 39 311 0.0 1.0 0.00 0.00 0.00 62 1034.1
20200120084730 39 299 0.0 1.0 0.00 0.00 0.00 61 1034.1
20200120084102 39 283 0.0 1.0 0.00 0.00 0.00 61 1034.0
20200120083545 39 315 0.0 1.0 0.00 0.00 0.00 61 1034.1
20200120083357 39 321 0.0 1.0 0.00 0.00 0.00 61 1034.1
20200120082544 39 269 0.0 1.0 0.00 0.00 0.00 61 1034.0
20200120082045 39 281 0.0 4.0 0.00 0.00 0.00 61 1034.0
20200120081621 39 111 0.0 2.0 0.00 0.00 0.00 61 1033.8
20200120081044 39 113 0.0 2.0 0.00 0.00 0.00 62 1033.9
20200120080549 39 346 0.0 1.0 0.00 0.00 0.00 62 1034.0
20200120080111 39 324 0.0 1.0 0.00 0.00 0.00 63 1034.0
20200120075543 39 228 0.0 1.0 0.00 0.00 0.00 63 1033.9
20200120075043 39 113 0.0 1.0 0.00 0.00 0.00 63 1033.9
20200120074756 39 257 0.0 2.0 0.00 0.00 0.00 63 1034.0
20200120074043 39 316 0.0 2.0 0.00 0.00 0.00 63 1034.0
20200120073541 39 288 0.0 1.0 0.00 0.00 0.00 63 1034.1
20200120073147 39 288 0.0 1.0 0.00 0.00 0.00 63 1034.0
20200120072540 39 302 0.0 2.0 0.00 0.00 0.00 63 1034.1
20200120072039 39 302 0.0 2.0 0.00 0.00 0.00 63 1034.1
20200120071638 39 292 0.0 1.0 0.00 0.00 0.00 62 1034.2
20200120071038 40 293 0.0 0.0 0.00 0.00 0.00 62 1034.2
20200120070544 39 295 0.0 1.0 0.00 0.00 0.00 62 1034.1
20200120070131 39 297 0.0 1.0 0.00 0.00 0.00 62 1034.1
20200120065538 39 292 0.0 1.0 0.00 0.00 0.00 62 1034.0
20200120065036 39 302 0.0 0.0 0.00 0.00 0.00 63 1034.0
20200120064621 40 195 0.0 1.0 0.00 0.00 0.00 62 1034.1
20200120064041 40 198 0.0 1.0 0.00 0.00 0.00 62 1034.1
20200120063541 40 254 0.0 1.0 0.00 0.00 0.00 62 1034.2
20200120063132 40 257 0.0 1.0 0.00 0.00 0.00 62 1034.3
20200120062529 40 219 0.0 0.0 0.00 0.00 0.00 62 1034.4
20200120062028 40 263 0.0 0.0 0.00 0.00 0.00 63 1034.3
20200120061632 40 263 0.0 0.0 0.00 0.00 0.00 63 1034.1
20200120061031 40 279 0.0 1.0 0.00 0.00 0.00 62 1034.1
20200120060524 40 197 0.0 0.0 0.00 0.00 0.00 62 1034.1
20200120060039 40 189 0.0 1.0 0.00 0.00 0.00 62 1034.1
20200120055523 40 169 0.0 1.0 0.00 0.00 0.00 61 1034.2
20200120055022 41 146 0.0 1.0 0.00 0.00 0.00 61 1034.2
20200120054604 41 137 0.0 1.0 0.00 0.00 0.00 61 1034.1
20200120054022 41 143 0.0 1.0 0.00 0.00 0.00 61 1034.1
20200120053522 41 36 0.0 1.0 0.00 0.00 0.00 61 1034.1
20200120053039 41 200 0.0 1.0 0.00 0.00 0.00 61 1034.0
20200120052520 41 259 0.0 1.0 0.00 0.00 0.00 60 1034.0
20200120052026 41 167 0.0 1.0 0.00 0.00 0.00 60 1034.0
20200120051526 41 119 0.0 0.0 0.00 0.00 0.00 59 1033.9
20200120051022 42 119 0.0 1.0 0.00 0.00 0.00 59 1033.9
20200120050529 42 119 0.0 1.0 0.00 0.00 0.00 59 1033.9
20200120050102 42 119 0.0 1.0 0.00 0.00 0.00 59 1033.7
20200120045525 42 119 0.0 1.0 0.00 0.00 0.00 60 1033.7
20200120045017 42 88 0.0 0.0 0.00 0.00 0.00 60 1033.6
20200120044527 42 81 0.0 1.0 0.00 0.00 0.00 61 1033.6
20200120044016 41 81 0.0 0.0 0.00 0.00 0.00 61 1033.6
20200120043523 41 87 0.0 0.0 0.00 0.00 0.00 61 1033.5
20200120043044 41 117 0.0 0.0 0.00 0.00 0.00 61 1033.6
20200120042520 41 117 0.0 1.0 0.00 0.00 0.00 62 1033.5
20200120042015 41 117 0.0 1.0 0.00 0.00 0.00 62 1033.6
20200120041547 41 114 0.0 1.0 0.00 0.00 0.00 62 1033.5
20200120041021 41 109 0.0 0.0 0.00 0.00 0.00 62 1033.5
20200120040514 41 109 0.0 0.0 0.00 0.00 0.00 62 1033.6
20200120040033 41 109 0.0 0.0 0.00 0.00 0.00 63 1033.5
20200120035517 41 109 0.0 0.0 0.00 0.00 0.00 64 1033.4
20200120035039 40 109 0.0 0.0 0.00 0.00 0.00 65 1033.4
20200120034524 40 109 0.0 0.0 0.00 0.00 0.00 64 1033.2
20200120034012 40 109 0.0 0.0 0.00 0.00 0.00 64 1033.1